Time,TemperatureF,DewpointF,PressureIn,WindDirection,WindDirectionDegrees,WindSpeedMPH,WindSpeedGustMPH,Humidity,HourlyPrecipIn,Conditions,Clouds,dailyrainin,SoftwareType,DateUTC
2013-04-04 00:00:00,34.1,13.4,30.17,NW,308,0.0,4.0,42,0.00,,,0.00,WeatherCatV1.13B119,2013-04-04 04:00:00,
2013-04-04 00:01:00,34.1,13.4,30.17,WNW,297,0.0,4.0,42,0.00,,,0.00,WeatherCatV1.13B119,2013-04-04 04:01:00,
2013-04-04 00:04:00,34.1,13.4,30.17,WNW,297,1.0,2.0,42,0.00,,,0.00,WeatherCatV1.13B119,2013-04-04 04:04:00,
2013-04-04 00:09:00,33.9,13.3,30.17,WNW,301,1.0,1.0,42,0.00,,,0.00,WeatherCatV1.13B119,2013-04-04 04:09:00,
2013-04-04 00:14:00,33.8,13.7,30.17,West,276,0.0,3.0,43,0.00,,,0.00,WeatherCatV1.13B119,2013-04-04 04:14:00,
2013-04-04 00:19:00,33.7,13.6,30.17,NW,321,1.0,4.0,43,0.00,,,0.00,WeatherCatV1.13B119,2013-04-04 04:19:00,
2013-04-04 00:24:00,33.7,13.6,30.17,WNW,303,0.0,2.0,43,0.00,,,0.00,WeatherCatV1.13B119,2013-04-04 04:24:00,
2013-04-04 00:29:00,33.6,13.5,30.17,WNW,302,3.0,5.0,43,0.00,,,0.00,WeatherCatV1.13B119,2013-04-04 04:29:00,
2013-04-04 00:34:00,33.6,13.5,30.17,West,271,1.0,3.0,43,0.00,,,0.00,WeatherCatV1.13B119,2013-04-04 04:34:00,
2013-04-04 00:39:00,33.5,13.4,30.18,NNW,334,0.0,2.0,43,0.00,,,0.00,WeatherCatV1.13B119,2013-04-04 04:39:00,
2013-04-04 00:44:00,33.4,13.9,30.18,North,10,0.0,1.0,44,0.00,,,0.00,WeatherCatV1.13B119,2013-04-04 04:44:00,
2013-04-04 00:49:00,33.3,13.8,30.18,WSW,252,0.0,5.0,44,0.00,,,0.00,WeatherCatV1.13B119,2013-04-04 04:49:00,
2013-04-04 00:54:00,33.2,13.7,30.18,NW,318,1.0,3.0,44,0.00,,,0.00,WeatherCatV1.13B119,2013-04-04 04:54:00,
2013-04-04 00:59:00,33.1,13.6,30.18,NW,307,0.0,2.0,44,0.00,,,0.00,WeatherCatV1.13B119,2013-04-04 04:59:00,
2013-04-04 01:04:00,33.0,13.5,30.19,North,349,1.0,4.0,44,0.00,,,0.00,WeatherCatV1.13B119,2013-04-04 05:04:00,
2013-04-04 01:09:00,32.9,13.4,30.19,WNW,288,1.0,4.0,44,0.00,,,0.00,WeatherCatV1.13B119,2013-04-04 05:09:00,
2013-04-04 01:14:00,32.9,13.9,30.19,WNW,297,1.0,3.0,45,0.00,,,0.00,WeatherCatV1.13B119,2013-04-04 05:14:00,
2013-04-04 01:19:00,32.9,13.4,30.19,North,349,2.0,4.0,44,0.00,,,0.00,WeatherCatV1.13B119,2013-04-04 05:19:00,
2013-04-04 01:24:00,32.9,13.4,30.19,NW,306,1.0,4.0,44,0.00,,,0.00,WeatherCatV1.13B119,2013-04-04 05:24:00,
2013-04-04 01:29:00,32.8,13.8,30.19,NE,39,1.0,4.0,45,0.00,,,0.00,WeatherCatV1.13B119,2013-04-04 05:29:00,
2013-04-04 01:34:00,32.7,13.7,30.19,NNW,330,1.0,3.0,45,0.00,,,0.00,WeatherCatV1.13B119,2013-04-04 05:34:00,
2013-04-04 01:39:00,32.7,13.7,30.19,NW,316,2.0,3.0,45,0.00,,,0.00,WeatherCatV1.13B119,2013-04-04 05:39:00,
2013-04-04 01:44:00,32.7,13.7,30.19,NW,326,2.0,5.0,45,0.00,,,0.00,WeatherCatV1.13B119,2013-04-04 05:44:00,
2013-04-04 01:49:00,32.7,13.7,30.20,North,353,0.0,3.0,45,0.00,,,0.00,WeatherCatV1.13B119,2013-04-04 05:49:00,
2013-04-04 01:54:00,32.6,13.6,30.20,NNW,333,1.0,2.0,45,0.00,,,0.00,WeatherCatV1.13B119,2013-04-04 05:54:00,
2013-04-04 01:59:00,32.5,13.5,30.19,NNW,333,2.0,3.0,45,0.00,,,0.00,WeatherCatV1.13B119,2013-04-04 05:59:00,
2013-04-04 02:04:00,32.4,14.0,30.20,West,276,1.0,4.0,46,0.00,,,0.00,WeatherCatV1.13B119,2013-04-04 06:04:00,
2013-04-04 02:09:00,32.4,14.0,30.20,North,350,0.0,3.0,46,0.00,,,0.00,WeatherCatV1.13B119,2013-04-04 06:09:00,
2013-04-04 02:14:00,32.3,13.9,30.20,WNW,286,1.0,4.0,46,0.00,,,0.00,WeatherCatV1.13B119,2013-04-04 06:14:00,
2013-04-04 02:19:00,32.3,13.9,30.20,NNW,334,3.0,6.0,46,0.00,,,0.00,WeatherCatV1.13B119,2013-04-04 06:19:00,
2013-04-04 02:24:00,32.3,13.9,30.20,WNW,297,1.0,6.0,46,0.00,,,0.00,WeatherCatV1.13B119,2013-04-04 06:24:00,
2013-04-04 02:29:00,32.2,13.8,30.20,NW,311,1.0,3.0,46,0.00,,,0.00,WeatherCatV1.13B119,2013-04-04 06:29:00,
2013-04-04 02:34:00,32.1,13.7,30.20,NNW,341,2.0,5.0,46,0.00,,,0.00,WeatherCatV1.13B119,2013-04-04 06:34:00,
2013-04-04 02:39:00,32.1,13.7,30.20,NNW,333,1.0,5.0,46,0.00,,,0.00,WeatherCatV1.13B119,2013-04-04 06:39:00,
2013-04-04 02:44:00,32.0,14.1,30.20,NW,313,1.0,7.0,47,0.00,,,0.00,WeatherCatV1.13B119,2013-04-04 06:44:00,
2013-04-04 02:49:00,31.9,14.0,30.20,NW,322,3.0,6.0,47,0.00,,,0.00,WeatherCatV1.13B119,2013-04-04 06:49:00,
2013-04-04 02:54:00,31.8,13.9,30.20,NW,307,2.0,4.0,47,0.00,,,0.00,WeatherCatV1.13B119,2013-04-04 06:54:00,
2013-04-04 02:59:00,31.8,13.9,30.20,NNW,340,0.0,4.0,47,0.00,,,0.00,WeatherCatV1.13B119,2013-04-04 06:59:00,
2013-04-04 03:04:00,31.7,13.8,30.20,WNW,298,2.0,4.0,47,0.00,,,0.00,WeatherCatV1.13B119,2013-04-04 07:04:00,
2013-04-04 03:09:00,31.6,13.7,30.20,North,354,1.0,1.0,47,0.00,,,0.00,WeatherCatV1.13B119,2013-04-04 07:09:00,
2013-04-04 03:14:00,31.5,14.1,30.19,NW,320,2.0,2.0,48,0.00,,,0.00,WeatherCatV1.13B119,2013-04-04 07:14:00,
2013-04-04 03:19:00,31.4,14.0,30.19,NW,319,0.0,2.0,48,0.00,,,0.00,WeatherCatV1.13B119,2013-04-04 07:19:00,
2013-04-04 03:24:00,31.3,13.9,30.19,NNE,13,1.0,3.0,48,0.00,,,0.00,WeatherCatV1.13B119,2013-04-04 07:24:00,
2013-04-04 03:29:00,31.2,13.8,30.19,NW,321,2.0,5.0,48,0.00,,,0.00,WeatherCatV1.13B119,2013-04-04 07:29:00,
2013-04-04 03:34:00,31.3,13.9,30.19,SSE,150,0.0,5.0,48,0.00,,,0.00,WeatherCatV1.13B119,2013-04-04 07:34:00,
2013-04-04 03:39:00,31.2,13.8,30.19,WNW,292,1.0,2.0,48,0.00,,,0.00,WeatherCatV1.13B119,2013-04-04 07:39:00,
2013-04-04 03:44:00,31.1,14.2,30.20,WNW,294,0.0,3.0,49,0.00,,,0.00,WeatherCatV1.13B119,2013-04-04 07:44:00,
2013-04-04 03:49:00,31.0,14.1,30.20,North,352,2.0,3.0,49,0.00,,,0.00,WeatherCatV1.13B119,2013-04-04 07:49:00,
2013-04-04 03:55:00,30.9,14.5,30.20,NE,43,0.0,3.0,50,0.00,,,0.00,WeatherCatV1.13B119,2013-04-04 07:55:00,
2013-04-04 04:00:00,30.9,14.5,30.20,WNW,297,1.0,3.0,50,0.00,,,0.00,WeatherCatV1.13B119,2013-04-04 08:00:00,
2013-04-04 04:05:00,30.8,14.4,30.20,North,354,1.0,6.0,50,0.00,,,0.00,WeatherCatV1.13B119,2013-04-04 08:05:00,
2013-04-04 04:10:00,30.8,14.4,30.20,WNW,302,1.0,3.0,50,0.00,,,0.00,WeatherCatV1.13B119,2013-04-04 08:10:00,
2013-04-04 04:15:00,30.7,14.3,30.20,NNW,334,1.0,3.0,50,0.00,,,0.00,WeatherCatV1.13B119,2013-04-04 08:15:00,
2013-04-04 04:20:00,30.6,14.6,30.20,WNW,287,1.0,3.0,51,0.00,,,0.00,WeatherCatV1.13B119,2013-04-04 08:20:00,
2013-04-04 04:25:00,30.6,14.6,30.20,WNW,286,4.0,4.0,51,0.00,,,0.00,WeatherCatV1.13B119,2013-04-04 08:25:00,
2013-04-04 04:30:00,30.6,14.6,30.20,North,7,0.0,2.0,51,0.00,,,0.00,WeatherCatV1.13B119,2013-04-04 08:30:00,
2013-04-04 04:35:00,30.6,14.6,30.20,NNW,335,1.0,3.0,51,0.00,,,0.00,WeatherCatV1.13B119,2013-04-04 08:35:00,
2013-04-04 04:40:00,30.5,14.6,30.21,NW,321,1.0,2.0,51,0.00,,,0.00,WeatherCatV1.13B119,2013-04-04 08:40:00,
2013-04-04 04:45:00,30.5,14.6,30.21,NW,307,1.0,6.0,51,0.00,,,0.00,WeatherCatV1.13B119,2013-04-04 08:45:00,
2013-04-04 04:50:00,30.5,14.6,30.21,ENE,71,0.0,1.0,51,0.00,,,0.00,WeatherCatV1.13B119,2013-04-04 08:50:00,
2013-04-04 04:55:00,30.4,14.5,30.22,WNW,298,0.0,1.0,51,0.00,,,0.00,WeatherCatV1.13B119,2013-04-04 08:55:00,
2013-04-04 05:00:00,30.2,14.7,30.22,NW,316,0.0,2.0,52,0.00,,,0.00,WeatherCatV1.13B119,2013-04-04 09:00:00,
2013-04-04 05:05:00,30.1,14.6,30.22,North,8,0.0,1.0,52,0.00,,,0.00,WeatherCatV1.13B119,2013-04-04 09:05:00,
2013-04-04 05:10:00,29.9,14.9,30.22,WNW,282,1.0,3.0,53,0.00,,,0.00,WeatherCatV1.13B119,2013-04-04 09:10:00,
2013-04-04 05:15:00,30.0,15.0,30.22,WNW,295,1.0,2.0,53,0.00,,,0.00,WeatherCatV1.13B119,2013-04-04 09:15:00,
2013-04-04 05:20:00,30.0,15.0,30.22,NNW,330,0.0,3.0,53,0.00,,,0.00,WeatherCatV1.13B119,2013-04-04 09:20:00,
2013-04-04 05:25:00,29.9,14.9,30.23,NW,307,1.0,2.0,53,0.00,,,0.00,WeatherCatV1.13B119,2013-04-04 09:25:00,
2013-04-04 05:30:00,29.9,14.9,30.23,NNW,334,2.0,3.0,53,0.00,,,0.00,WeatherCatV1.13B119,2013-04-04 09:30:00,
2013-04-04 05:35:00,29.9,14.9,30.23,WNW,290,0.0,1.0,53,0.00,,,0.00,WeatherCatV1.13B119,2013-04-04 09:35:00,
2013-04-04 05:40:00,29.9,14.9,30.24,WNW,284,1.0,3.0,53,0.00,,,0.00,WeatherCatV1.13B119,2013-04-04 09:40:00,
2013-04-04 05:45:00,29.9,14.9,30.24,North,352,0.0,2.0,53,0.00,,,0.00,WeatherCatV1.13B119,2013-04-04 09:45:00,
2013-04-04 05:50:00,29.9,14.9,30.25,WNW,294,2.0,2.0,53,0.00,,,0.00,WeatherCatV1.13B119,2013-04-04 09:50:00,
2013-04-04 05:55:00,29.9,14.9,30.25,West,265,0.0,2.0,53,0.00,,,0.00,WeatherCatV1.13B119,2013-04-04 09:55:00,
2013-04-04 06:01:00,29.8,15.2,30.25,NW,309,0.0,2.0,54,0.00,,,0.00,WeatherCatV1.13B119,2013-04-04 10:01:00,
2013-04-04 06:06:00,29.7,15.1,30.25,NW,322,1.0,2.0,54,0.00,,,0.00,WeatherCatV1.13B119,2013-04-04 10:06:00,
2013-04-04 06:11:00,29.8,15.2,30.25,North,350,0.0,2.0,54,0.00,,,0.00,WeatherCatV1.13B119,2013-04-04 10:11:00,
2013-04-04 06:16:00,30.0,15.0,30.26,WNW,292,1.0,5.0,53,0.00,,,0.00,WeatherCatV1.13B119,2013-04-04 10:16:00,
2013-04-04 06:21:00,30.0,15.0,30.26,NW,312,2.0,3.0,53,0.00,,,0.00,WeatherCatV1.13B119,2013-04-04 10:21:00,
2013-04-04 06:26:00,30.1,15.1,30.27,WNW,295,1.0,3.0,53,0.00,,,0.00,WeatherCatV1.13B119,2013-04-04 10:26:00,
2013-04-04 06:32:00,30.1,15.1,30.27,North,359,1.0,3.0,53,0.00,,,0.00,WeatherCatV1.13B119,2013-04-04 10:32:00,
2013-04-04 06:37:00,30.2,15.2,30.27,WNW,294,2.0,3.0,53,0.00,,,0.00,WeatherCatV1.13B119,2013-04-04 10:37:00,
2013-04-04 06:42:00,30.1,15.1,30.28,WNW,295,2.0,2.0,53,0.00,,,0.00,WeatherCatV1.13B119,2013-04-04 10:42:00,
2013-04-04 06:47:00,30.1,15.1,30.27,WNW,293,0.0,1.0,53,0.00,,,0.00,WeatherCatV1.13B119,2013-04-04 10:47:00,
2013-04-04 06:52:00,30.1,15.1,30.27,SW,232,0.0,1.0,53,0.00,,,0.00,WeatherCatV1.13B119,2013-04-04 10:52:00,
2013-04-04 06:57:00,29.9,15.3,30.28,West,264,0.0,0.0,54,0.00,,,0.00,WeatherCatV1.13B119,2013-04-04 10:57:00,
2013-04-04 07:02:00,29.5,15.3,30.28,West,264,0.0,1.0,55,0.00,,,0.00,WeatherCatV1.13B119,2013-04-04 11:02:00,
2013-04-04 07:07:00,29.3,15.2,30.28,West,281,0.0,1.0,55,0.00,,,0.00,WeatherCatV1.13B119,2013-04-04 11:07:00,
2013-04-04 07:12:00,29.6,15.4,30.28,NNW,333,1.0,1.0,55,0.00,,,0.00,WeatherCatV1.13B119,2013-04-04 11:12:00,
2013-04-04 07:17:00,30.0,15.8,30.29,WNW,301,0.0,1.0,55,0.00,,,0.00,WeatherCatV1.13B119,2013-04-04 11:17:00,
2013-04-04 07:22:00,30.2,15.6,30.29,East,89,0.0,0.0,54,0.00,,,0.00,WeatherCatV1.13B119,2013-04-04 11:22:00,
2013-04-04 07:27:00,30.5,15.9,30.29,ENE,76,0.0,0.0,54,0.00,,,0.00,WeatherCatV1.13B119,2013-04-04 11:27:00,
2013-04-04 07:32:00,30.8,15.3,30.29,NE,46,0.0,0.0,52,0.00,,,0.00,WeatherCatV1.13B119,2013-04-04 11:32:00,
2013-04-04 07:37:00,31.1,15.6,30.30,ENE,57,0.0,1.0,52,0.00,,,0.00,WeatherCatV1.13B119,2013-04-04 11:37:00,
2013-04-04 07:42:00,31.5,15.9,30.30,WNW,294,0.0,1.0,52,0.00,,,0.00,WeatherCatV1.13B119,2013-04-04 11:42:00,
2013-04-04 07:47:00,31.9,15.4,30.30,ESE,120,0.0,2.0,50,0.00,,,0.00,WeatherCatV1.13B119,2013-04-04 11:47:00,
2013-04-04 07:52:00,32.5,16.0,30.30,NNW,338,0.0,1.0,50,0.00,,,0.00,WeatherCatV1.13B119,2013-04-04 11:52:00,
2013-04-04 07:57:00,32.7,15.7,30.30,NNW,334,1.0,2.0,49,0.00,,,0.00,WeatherCatV1.13B119,2013-04-04 11:57:00,
2013-04-04 08:02:00,33.0,15.5,30.30,North,359,0.0,4.0,48,0.00,,,0.00,WeatherCatV1.13B119,2013-04-04 12:02:00,
2013-04-04 08:07:00,33.3,15.8,30.31,SW,217,2.0,3.0,48,0.00,,,0.00,WeatherCatV1.13B119,2013-04-04 12:07:00,
2013-04-04 08:12:00,33.7,15.6,30.31,NNW,347,0.0,3.0,47,0.00,,,0.00,WeatherCatV1.13B119,2013-04-04 12:12:00,
2013-04-04 08:17:00,34.0,15.4,30.31,NNE,13,1.0,3.0,46,0.00,,,0.00,WeatherCatV1.13B119,2013-04-04 12:17:00,
2013-04-04 08:22:00,34.2,15.6,30.31,North,359,1.0,4.0,46,0.00,,,0.00,WeatherCatV1.13B119,2013-04-04 12:22:00,
2013-04-04 08:27:00,34.5,15.4,30.31,NNE,18,3.0,5.0,45,0.00,,,0.00,WeatherCatV1.13B119,2013-04-04 12:27:00,
2013-04-04 08:32:00,34.7,15.6,30.31,NW,313,0.0,3.0,45,0.00,,,0.00,WeatherCatV1.13B119,2013-04-04 12:32:00,
2013-04-04 08:37:00,35.7,16.0,30.31,NE,40,2.0,3.0,44,0.00,,,0.00,WeatherCatV1.13B119,2013-04-04 12:37:00,
2013-04-04 08:42:00,36.1,15.3,30.31,NW,326,2.0,3.0,42,0.00,,,0.00,WeatherCatV1.13B119,2013-04-04 12:42:00,
2013-04-04 08:47:00,36.4,15.0,30.31,WNW,285,1.0,3.0,41,0.00,,,0.00,WeatherCatV1.13B119,2013-04-04 12:47:00,
2013-04-04 08:52:00,36.7,15.2,30.31,North,6,2.0,3.0,41,0.00,,,0.00,WeatherCatV1.13B119,2013-04-04 12:52:00,
2013-04-04 08:57:00,37.0,14.9,30.30,NNW,335,1.0,2.0,40,0.00,,,0.00,WeatherCatV1.13B119,2013-04-04 12:57:00,
2013-04-04 09:02:00,37.2,14.6,30.30,West,267,2.0,4.0,39,0.00,,,0.00,WeatherCatV1.13B119,2013-04-04 13:02:00,
2013-04-04 09:07:00,37.8,14.5,30.30,ENE,66,1.0,8.0,38,0.00,,,0.00,WeatherCatV1.13B119,2013-04-04 13:07:00,
2013-04-04 09:12:00,38.3,12.4,30.30,SW,217,2.0,4.0,34,0.00,,,0.00,WeatherCatV1.13B119,2013-04-04 13:12:00,
2013-04-04 09:17:00,38.6,12.7,30.30,NW,307,2.0,4.0,34,0.00,,,0.00,WeatherCatV1.13B119,2013-04-04 13:17:00,
2013-04-04 09:22:00,39.0,11.0,30.30,NW,305,4.0,12.0,31,0.00,,,0.00,WeatherCatV1.13B119,2013-04-04 13:22:00,
2013-04-04 09:27:00,39.1,11.0,30.29,East,99,2.0,4.0,31,0.00,,,0.00,WeatherCatV1.13B119,2013-04-04 13:27:00,
2013-04-04 09:32:00,39.4,10.6,30.30,NNE,19,2.0,8.0,30,0.00,,,0.00,WeatherCatV1.13B119,2013-04-04 13:32:00,
2013-04-04 09:37:00,39.3,10.5,30.30,WNW,296,6.0,6.0,30,0.00,,,0.00,WeatherCatV1.13B119,2013-04-04 13:37:00,
2013-04-04 09:42:00,39.3,11.2,30.29,NNW,330,4.0,8.0,31,0.00,,,0.00,WeatherCatV1.13B119,2013-04-04 13:42:00,
2013-04-04 09:47:00,39.6,10.0,30.29,WNW,295,6.0,10.0,29,0.00,,,0.00,WeatherCatV1.13B119,2013-04-04 13:47:00,
2013-04-04 09:52:00,40.0,10.3,30.29,WNW,302,5.0,9.0,29,0.00,,,0.00,WeatherCatV1.13B119,2013-04-04 13:52:00,
2013-04-04 09:57:00,40.5,11.5,30.28,NNW,329,3.0,5.0,30,0.00,,,0.00,WeatherCatV1.13B119,2013-04-04 13:57:00,
2013-04-04 10:02:00,40.8,11.8,30.28,NNW,341,3.0,4.0,30,0.00,,,0.00,WeatherCatV1.13B119,2013-04-04 14:02:00,
2013-04-04 10:07:00,41.1,11.3,30.28,WNW,292,1.0,2.0,29,0.00,,,0.00,WeatherCatV1.13B119,2013-04-04 14:07:00,
2013-04-04 10:12:00,41.3,10.7,30.27,North,349,2.0,6.0,28,0.00,,,0.00,WeatherCatV1.13B119,2013-04-04 14:12:00,
2013-04-04 10:17:00,41.5,10.0,30.28,WSW,253,7.0,7.0,27,0.00,,,0.00,WeatherCatV1.13B119,2013-04-04 14:17:00,
2013-04-04 10:22:00,41.6,10.9,30.28,WSW,245,3.0,5.0,28,0.00,,,0.00,WeatherCatV1.13B119,2013-04-04 14:22:00,
2013-04-04 10:27:00,42.2,10.6,30.28,WNW,300,3.0,6.0,27,0.00,,,0.00,WeatherCatV1.13B119,2013-04-04 14:27:00,
2013-04-04 10:32:00,42.5,11.7,30.27,NW,311,1.0,4.0,28,0.00,,,0.00,WeatherCatV1.13B119,2013-04-04 14:32:00,
2013-04-04 10:37:00,42.9,10.4,30.27,NW,326,3.0,7.0,26,0.00,,,0.00,WeatherCatV1.13B119,2013-04-04 14:37:00,
2013-04-04 10:42:00,43.3,11.6,30.27,NNE,13,1.0,4.0,27,0.00,,,0.00,WeatherCatV1.13B119,2013-04-04 14:42:00,
2013-04-04 10:47:00,43.4,10.8,30.27,WNW,282,5.0,6.0,26,0.00,,,0.00,WeatherCatV1.13B119,2013-04-04 14:47:00,
2013-04-04 10:52:00,43.8,10.3,30.27,South,172,2.0,6.0,25,0.00,,,0.00,WeatherCatV1.13B119,2013-04-04 14:52:00,
2013-04-04 10:57:00,44.0,10.5,30.26,SW,228,1.0,6.0,25,0.00,,,0.00,WeatherCatV1.13B119,2013-04-04 14:57:00,
2013-04-04 11:02:00,43.9,10.4,30.26,WNW,302,4.0,6.0,25,0.00,,,0.00,WeatherCatV1.13B119,2013-04-04 15:02:00,
2013-04-04 11:07:00,44.0,10.5,30.26,NW,311,6.0,6.0,25,0.00,,,0.00,WeatherCatV1.13B119,2013-04-04 15:07:00,
2013-04-04 11:12:00,44.1,10.6,30.25,North,3,2.0,8.0,25,0.00,,,0.00,WeatherCatV1.13B119,2013-04-04 15:12:00,
2013-04-04 11:17:00,44.4,10.8,30.25,NNW,333,2.0,5.0,25,0.00,,,0.00,WeatherCatV1.13B119,2013-04-04 15:17:00,
2013-04-04 11:22:00,44.4,10.8,30.25,NNW,344,2.0,5.0,25,0.00,,,0.00,WeatherCatV1.13B119,2013-04-04 15:22:00,
2013-04-04 11:27:00,44.5,10.9,30.24,NNE,13,0.0,3.0,25,0.00,,,0.00,WeatherCatV1.13B119,2013-04-04 15:27:00,
2013-04-04 11:32:00,45.5,10.8,30.24,NE,42,1.0,2.0,24,0.00,,,0.00,WeatherCatV1.13B119,2013-04-04 15:32:00,
2013-04-04 11:37:00,45.5,9.9,30.24,WSW,239,7.0,7.0,23,0.00,,,0.00,WeatherCatV1.13B119,2013-04-04 15:37:00,
2013-04-04 11:42:00,45.6,10.9,30.25,NNW,332,3.0,6.0,24,0.00,,,0.00,WeatherCatV1.13B119,2013-04-04 15:42:00,
2013-04-04 11:48:00,45.5,9.9,30.24,NNE,30,0.0,8.0,23,0.00,,,0.00,WeatherCatV1.13B119,2013-04-04 15:48:00,
2013-04-04 11:53:00,46.4,10.6,30.24,North,8,2.0,3.0,23,0.00,,,0.00,WeatherCatV1.13B119,2013-04-04 15:53:00,
2013-04-04 11:58:00,46.9,10.1,30.24,NW,311,2.0,3.0,22,0.00,,,0.00,WeatherCatV1.13B119,2013-04-04 15:58:00,
2013-04-04 12:03:00,47.2,10.3,30.24,WSW,244,1.0,7.0,22,0.00,,,0.00,WeatherCatV1.13B119,2013-04-04 16:03:00,
2013-04-04 12:08:00,47.5,10.6,30.23,SE,134,0.0,3.0,22,0.00,,,0.00,WeatherCatV1.13B119,2013-04-04 16:08:00,
2013-04-04 12:13:00,48.2,11.2,30.23,SSE,156,1.0,4.0,22,0.00,,,0.00,WeatherCatV1.13B119,2013-04-04 16:13:00,
2013-04-04 12:18:00,48.4,10.3,30.23,WNW,290,4.0,5.0,21,0.00,,,0.00,WeatherCatV1.13B119,2013-04-04 16:18:00,
2013-04-04 12:23:00,48.1,7.8,30.22,NNW,339,3.0,5.0,19,0.00,,,0.00,WeatherCatV1.13B119,2013-04-04 16:23:00,
2013-04-04 12:28:00,48.0,8.9,30.22,WSW,251,0.0,7.0,20,0.00,,,0.00,WeatherCatV1.13B119,2013-04-04 16:28:00,
2013-04-04 12:33:00,48.3,9.1,30.22,NNW,330,3.0,14.0,20,0.00,,,0.01,WeatherCatV1.13B119,2013-04-04 16:33:00,
2013-04-04 12:38:00,48.6,11.5,30.22,NNW,346,4.0,4.0,22,0.00,,,0.01,WeatherCatV1.13B119,2013-04-04 16:38:00,
2013-04-04 12:43:00,49.1,11.9,30.21,NNW,338,2.0,3.0,22,0.00,,,0.01,WeatherCatV1.13B119,2013-04-04 16:43:00,
2013-04-04 12:48:00,48.9,10.7,30.21,NW,320,0.0,3.0,21,0.00,,,0.01,WeatherCatV1.13B119,2013-04-04 16:48:00,
2013-04-04 12:53:00,49.2,11.0,30.21,North,4,2.0,6.0,21,0.00,,,0.01,WeatherCatV1.13B119,2013-04-04 16:53:00,
2013-04-04 12:58:00,49.7,10.3,30.21,WSW,257,5.0,7.0,20,0.00,,,0.01,WeatherCatV1.13B119,2013-04-04 16:58:00,
2013-04-04 13:03:00,49.4,11.1,30.21,NW,318,2.0,3.0,21,0.00,,,0.01,WeatherCatV1.13B119,2013-04-04 17:03:00,
2013-04-04 13:08:00,49.8,10.4,30.21,NE,43,2.0,5.0,20,0.00,,,0.02,WeatherCatV1.13B119,2013-04-04 17:08:00,
2013-04-04 13:13:00,50.4,9.7,30.20,East,98,0.0,2.0,19,0.00,,,0.02,WeatherCatV1.13B119,2013-04-04 17:13:00,
2013-04-04 13:18:00,50.4,8.5,30.20,WSW,248,2.0,7.0,18,0.00,,,0.02,WeatherCatV1.13B119,2013-04-04 17:18:00,
2013-04-04 13:24:00,51.0,9.0,30.20,ENE,62,0.0,10.0,18,0.00,,,0.02,WeatherCatV1.13B119,2013-04-04 17:24:00,
2013-04-04 13:29:00,51.0,9.0,30.20,WNW,302,4.0,4.0,18,0.00,,,0.02,WeatherCatV1.13B119,2013-04-04 17:29:00,
2013-04-04 13:34:00,50.8,10.1,30.19,ENE,62,4.0,6.0,19,0.00,,,0.02,WeatherCatV1.13B119,2013-04-04 17:34:00,
2013-04-04 13:40:00,51.0,11.4,30.19,NNW,346,2.0,4.0,20,0.00,,,0.02,WeatherCatV1.13B119,2013-04-04 17:40:00,
2013-04-04 13:44:00,50.7,8.8,30.19,NNE,19,1.0,8.0,18,0.00,,,0.02,WeatherCatV1.13B119,2013-04-04 17:44:00,
2013-04-04 13:50:00,51.0,11.4,30.19,WNW,295,4.0,5.0,20,0.00,,,0.02,WeatherCatV1.13B119,2013-04-04 17:50:00,
2013-04-04 13:55:00,51.3,10.5,30.19,WNW,295,1.0,8.0,19,0.00,,,0.02,WeatherCatV1.13B119,2013-04-04 17:55:00,
2013-04-04 14:00:00,51.1,10.3,30.18,NNW,333,1.0,5.0,19,0.00,,,0.02,WeatherCatV1.13B119,2013-04-04 18:00:00,
2013-04-04 14:05:00,51.8,10.9,30.18,NW,316,3.0,6.0,19,0.00,,,0.02,WeatherCatV1.13B119,2013-04-04 18:05:00,
2013-04-04 14:10:00,51.5,10.6,30.17,WNW,292,3.0,5.0,19,0.00,,,0.03,WeatherCatV1.13B119,2013-04-04 18:10:00,
2013-04-04 14:15:00,51.9,9.8,30.17,West,266,1.0,3.0,18,0.00,,,0.03,WeatherCatV1.13B119,2013-04-04 18:15:00,
2013-04-04 14:20:00,51.8,9.7,30.17,ENE,65,6.0,8.0,18,0.00,,,0.03,WeatherCatV1.13B119,2013-04-04 18:20:00,
2013-04-04 14:25:00,52.4,11.4,30.17,ENE,61,1.0,2.0,19,0.00,,,0.03,WeatherCatV1.13B119,2013-04-04 18:25:00,
2013-04-04 14:30:00,53.0,9.4,30.16,NNW,338,6.0,6.0,17,0.00,,,0.03,WeatherCatV1.13B119,2013-04-04 18:30:00,
2013-04-04 14:35:00,52.6,10.3,30.16,ENE,62,3.0,7.0,18,0.00,,,0.03,WeatherCatV1.13B119,2013-04-04 18:35:00,
2013-04-04 14:40:00,52.6,10.3,30.16,NNW,340,1.0,4.0,18,0.00,,,0.03,WeatherCatV1.13B119,2013-04-04 18:40:00,
2013-04-04 14:45:00,52.8,10.5,30.15,NNW,341,4.0,4.0,18,0.00,,,0.03,WeatherCatV1.13B119,2013-04-04 18:45:00,
2013-04-04 14:50:00,53.0,9.4,30.15,NNW,327,7.0,7.0,17,0.00,,,0.03,WeatherCatV1.13B119,2013-04-04 18:50:00,
2013-04-04 14:55:00,53.3,9.6,30.15,WNW,293,2.0,5.0,17,0.00,,,0.04,WeatherCatV1.13B119,2013-04-04 18:55:00,
2013-04-04 15:00:00,53.5,9.8,30.15,NNW,340,6.0,7.0,17,0.00,,,0.04,WeatherCatV1.13B119,2013-04-04 19:00:00,
2013-04-04 15:05:00,53.5,9.8,30.14,SW,235,0.0,4.0,17,0.00,,,0.04,WeatherCatV1.13B119,2013-04-04 19:05:00,
2013-04-04 15:10:00,53.6,11.1,30.14,West,276,3.0,8.0,18,0.00,,,0.04,WeatherCatV1.13B119,2013-04-04 19:10:00,
2013-04-04 15:15:00,54.1,12.8,30.14,ESE,108,0.0,4.0,19,0.00,,,0.04,WeatherCatV1.13B119,2013-04-04 19:15:00,
2013-04-04 15:20:00,54.5,11.9,30.13,WSW,247,0.0,2.0,18,0.00,,,0.04,WeatherCatV1.13B119,2013-04-04 19:20:00,
2013-04-04 15:25:00,54.6,12.0,30.13,NNW,329,4.0,4.0,18,0.00,,,0.04,WeatherCatV1.13B119,2013-04-04 19:25:00,
2013-04-04 15:30:00,54.6,10.7,30.13,NW,311,6.0,9.0,17,0.00,,,0.04,WeatherCatV1.13B119,2013-04-04 19:30:00,
2013-04-04 15:35:00,54.4,11.8,30.13,NNW,333,1.0,5.0,18,0.00,,,0.04,WeatherCatV1.13B119,2013-04-04 19:35:00,
2013-04-04 15:40:00,54.5,11.9,30.13,WNW,292,2.0,5.0,18,0.00,,,0.04,WeatherCatV1.13B119,2013-04-04 19:40:00,
2013-04-04 15:45:00,54.7,12.0,30.12,WNW,292,3.0,6.0,18,0.00,,,0.04,WeatherCatV1.13B119,2013-04-04 19:45:00,
2013-04-04 15:50:00,54.5,11.9,30.12,NNW,334,2.0,5.0,18,0.00,,,0.04,WeatherCatV1.13B119,2013-04-04 19:50:00,
2013-04-04 15:55:00,54.2,11.6,30.12,ENE,63,1.0,8.0,18,0.00,,,0.04,WeatherCatV1.13B119,2013-04-04 19:55:00,
2013-04-04 16:00:00,54.1,11.6,30.11,WNW,295,5.0,6.0,18,0.00,,,0.04,WeatherCatV1.13B119,2013-04-04 20:00:00,
2013-04-04 16:05:00,53.8,11.3,30.11,NW,325,0.0,0.0,18,0.00,,,0.04,WeatherCatV1.13B119,2013-04-04 20:05:00,
2013-04-04 16:10:00,53.9,11.4,30.10,East,99,3.0,6.0,18,0.00,,,0.04,WeatherCatV1.13B119,2013-04-04 20:10:00,
2013-04-04 16:15:00,54.1,11.6,30.10,ENE,67,2.0,3.0,18,0.00,,,0.04,WeatherCatV1.13B119,2013-04-04 20:15:00,
2013-04-04 16:20:00,54.3,12.9,30.10,East,88,8.0,8.0,19,0.00,,,0.04,WeatherCatV1.13B119,2013-04-04 20:20:00,
2013-04-04 16:25:00,54.3,12.9,30.10,NNW,331,3.0,4.0,19,0.00,,,0.04,WeatherCatV1.13B119,2013-04-04 20:25:00,
2013-04-04 16:30:00,54.1,12.8,30.09,East,84,2.0,7.0,19,0.00,,,0.04,WeatherCatV1.13B119,2013-04-04 20:30:00,
2013-04-04 16:35:00,54.3,12.9,30.09,East,89,3.0,7.0,19,0.00,,,0.04,WeatherCatV1.13B119,2013-04-04 20:35:00,
2013-04-04 16:40:00,54.2,14.0,30.09,WNW,296,1.0,3.0,20,0.00,,,0.04,WeatherCatV1.13B119,2013-04-04 20:40:00,
2013-04-04 16:45:00,54.1,13.9,30.09,NW,311,2.0,4.0,20,0.00,,,0.04,WeatherCatV1.13B119,2013-04-04 20:45:00,
2013-04-04 16:50:00,54.2,14.0,30.08,NW,326,2.0,6.0,20,0.00,,,0.04,WeatherCatV1.13B119,2013-04-04 20:50:00,
2013-04-04 16:55:00,54.0,16.0,30.08,East,83,0.0,1.0,22,0.00,,,0.04,WeatherCatV1.13B119,2013-04-04 20:55:00,
2013-04-04 17:00:00,54.2,14.0,30.08,NNW,335,2.0,3.0,20,0.00,,,0.04,WeatherCatV1.13B119,2013-04-04 21:00:00,
2013-04-04 17:05:00,54.3,14.1,30.08,ESE,102,3.0,5.0,20,0.00,,,0.04,WeatherCatV1.13B119,2013-04-04 21:05:00,
2013-04-04 17:10:00,54.5,14.3,30.08,NNW,334,0.0,2.0,20,0.00,,,0.04,WeatherCatV1.13B119,2013-04-04 21:10:00,
2013-04-04 17:15:00,54.6,13.2,30.08,WNW,300,3.0,8.0,19,0.00,,,0.04,WeatherCatV1.13B119,2013-04-04 21:15:00,
2013-04-04 17:20:00,54.5,14.3,30.08,WSW,243,2.0,4.0,20,0.00,,,0.04,WeatherCatV1.13B119,2013-04-04 21:20:00,
2013-04-04 17:25:00,54.7,14.4,30.08,North,11,0.0,5.0,20,0.00,,,0.04,WeatherCatV1.13B119,2013-04-04 21:25:00,
2013-04-04 17:30:00,54.7,15.5,30.07,NNW,335,1.0,1.0,21,0.00,,,0.04,WeatherCatV1.13B119,2013-04-04 21:30:00,
2013-04-04 17:35:00,54.6,14.4,30.07,West,273,2.0,7.0,20,0.00,,,0.04,WeatherCatV1.13B119,2013-04-04 21:35:00,
2013-04-04 17:40:00,54.3,14.1,30.07,NNE,30,3.0,5.0,20,0.00,,,0.04,WeatherCatV1.13B119,2013-04-04 21:40:00,
2013-04-04 17:45:00,54.1,13.9,30.07,NNE,23,1.0,6.0,20,0.00,,,0.04,WeatherCatV1.13B119,2013-04-04 21:45:00,
2013-04-04 17:50:00,54.1,15.0,30.07,ESE,114,1.0,1.0,21,0.00,,,0.04,WeatherCatV1.13B119,2013-04-04 21:50:00,
2013-04-04 17:55:00,54.1,15.0,30.07,East,86,8.0,8.0,21,0.00,,,0.04,WeatherCatV1.13B119,2013-04-04 21:55:00,
2013-04-04 18:00:00,53.9,14.9,30.08,WNW,295,5.0,8.0,21,0.00,,,0.04,WeatherCatV1.13B119,2013-04-04 22:00:00,
2013-04-04 18:05:00,53.8,14.8,30.08,WNW,284,6.0,8.0,21,0.00,,,0.04,WeatherCatV1.13B119,2013-04-04 22:05:00,
2013-04-04 18:10:00,53.7,14.7,30.07,NE,47,4.0,9.0,21,0.00,,,0.04,WeatherCatV1.13B119,2013-04-04 22:10:00,
2013-04-04 18:15:00,53.6,14.6,30.07,NW,319,1.0,3.0,21,0.00,,,0.04,WeatherCatV1.13B119,2013-04-04 22:15:00,
2013-04-04 18:21:00,53.5,14.5,30.07,NNW,331,3.0,3.0,21,0.00,,,0.04,WeatherCatV1.13B119,2013-04-04 22:21:00,
2013-04-04 18:26:00,53.4,14.5,30.07,ENE,63,4.0,5.0,21,0.00,,,0.04,WeatherCatV1.13B119,2013-04-04 22:26:00,
2013-04-04 18:31:00,53.2,15.4,30.07,NNW,339,1.0,1.0,22,0.00,,,0.04,WeatherCatV1.13B119,2013-04-04 22:31:00,
2013-04-04 18:36:00,53.0,15.2,30.07,ENE,70,0.0,6.0,22,0.00,,,0.04,WeatherCatV1.13B119,2013-04-04 22:36:00,
2013-04-04 18:41:00,52.8,15.0,30.07,ENE,72,0.0,1.0,22,0.00,,,0.04,WeatherCatV1.13B119,2013-04-04 22:41:00,
2013-04-04 18:46:00,52.5,14.8,30.07,SW,221,0.0,1.0,22,0.00,,,0.04,WeatherCatV1.13B119,2013-04-04 22:46:00,
2013-04-04 18:51:00,52.3,15.6,30.06,NNW,338,3.0,3.0,23,0.00,,,0.04,WeatherCatV1.13B119,2013-04-04 22:51:00,
2013-04-04 18:56:00,52.1,14.4,30.06,NNW,328,1.0,4.0,22,0.00,,,0.04,WeatherCatV1.13B119,2013-04-04 22:56:00,
2013-04-04 19:01:00,51.9,15.3,30.06,NE,34,0.0,1.0,23,0.00,,,0.04,WeatherCatV1.13B119,2013-04-04 23:01:00,
2013-04-04 19:06:00,51.7,15.1,30.06,NNW,345,0.0,1.0,23,0.00,,,0.04,WeatherCatV1.13B119,2013-04-04 23:06:00,
2013-04-04 19:11:00,51.4,14.9,30.06,NW,323,0.0,2.0,23,0.00,,,0.04,WeatherCatV1.13B119,2013-04-04 23:11:00,
2013-04-04 19:16:00,51.2,14.7,30.06,ESE,105,0.0,1.0,23,0.00,,,0.04,WeatherCatV1.13B119,2013-04-04 23:16:00,
2013-04-04 19:21:00,50.9,14.4,30.06,East,89,0.0,1.0,23,0.00,,,0.04,WeatherCatV1.13B119,2013-04-04 23:21:00,
2013-04-04 19:26:00,50.7,15.2,30.06,East,96,0.0,0.0,24,0.00,,,0.04,WeatherCatV1.13B119,2013-04-04 23:26:00,
2013-04-04 19:31:00,50.3,14.9,30.06,North,358,0.0,3.0,24,0.00,,,0.04,WeatherCatV1.13B119,2013-04-04 23:31:00,
2013-04-04 19:36:00,50.2,14.8,30.06,ENE,66,2.0,2.0,24,0.00,,,0.04,WeatherCatV1.13B119,2013-04-04 23:36:00,
2013-04-04 19:41:00,50.0,14.6,30.06,WNW,300,0.0,1.0,24,0.00,,,0.04,WeatherCatV1.13B119,2013-04-04 23:41:00,
2013-04-04 19:46:00,49.8,15.4,30.06,NW,321,1.0,2.0,25,0.00,,,0.04,WeatherCatV1.13B119,2013-04-04 23:46:00,
2013-04-04 19:51:00,49.6,15.2,30.06,East,79,0.0,1.0,25,0.00,,,0.04,WeatherCatV1.13B119,2013-04-04 23:51:00,
2013-04-04 19:56:00,49.5,15.2,30.06,North,359,0.0,4.0,25,0.00,,,0.04,WeatherCatV1.13B119,2013-04-04 23:56:00,
2013-04-04 20:01:00,49.5,16.1,30.07,NNW,328,1.0,1.0,26,0.00,,,0.04,WeatherCatV1.13B119,2013-04-05 00:01:00,
2013-04-04 20:06:00,49.4,16.0,30.06,East,98,0.0,3.0,26,0.00,,,0.04,WeatherCatV1.13B119,2013-04-05 00:06:00,
2013-04-04 20:11:00,49.2,16.7,30.07,East,91,3.0,3.0,27,0.00,,,0.04,WeatherCatV1.13B119,2013-04-05 00:11:00,
2013-04-04 20:16:00,49.1,16.6,30.07,NW,307,0.0,2.0,27,0.00,,,0.04,WeatherCatV1.13B119,2013-04-05 00:16:00,
2013-04-04 20:21:00,48.8,17.2,30.07,ENE,77,0.0,1.0,28,0.00,,,0.04,WeatherCatV1.13B119,2013-04-05 00:21:00,
2013-04-04 20:26:00,48.6,17.0,30.07,NW,312,1.0,3.0,28,0.00,,,0.04,WeatherCatV1.13B119,2013-04-05 00:26:00,
2013-04-04 20:31:00,48.5,17.7,30.07,East,89,0.0,4.0,29,0.00,,,0.04,WeatherCatV1.13B119,2013-04-05 00:31:00,
2013-04-04 20:36:00,48.5,18.5,30.07,ENE,65,0.0,1.0,30,0.00,,,0.04,WeatherCatV1.13B119,2013-04-05 00:36:00,
2013-04-04 20:41:00,48.2,18.2,30.08,ESE,114,0.0,1.0,30,0.00,,,0.04,WeatherCatV1.13B119,2013-04-05 00:41:00,
2013-04-04 20:46:00,48.0,18.1,30.08,East,87,0.0,2.0,30,0.00,,,0.04,WeatherCatV1.13B119,2013-04-05 00:46:00,
2013-04-04 20:51:00,47.9,18.0,30.08,ESE,107,2.0,3.0,30,0.00,,,0.04,WeatherCatV1.13B119,2013-04-05 00:51:00,
2013-04-04 20:56:00,47.8,17.9,30.08,West,266,2.0,4.0,30,0.00,,,0.04,WeatherCatV1.13B119,2013-04-05 00:56:00,
2013-04-04 21:02:00,47.7,18.6,30.08,SSE,166,0.0,4.0,31,0.00,,,0.04,WeatherCatV1.13B119,2013-04-05 01:02:00,
2013-04-04 21:07:00,47.5,19.1,30.08,ESE,109,0.0,3.0,32,0.00,,,0.04,WeatherCatV1.13B119,2013-04-05 01:07:00,
2013-04-04 21:12:00,47.3,19.0,30.09,NW,316,0.0,4.0,32,0.00,,,0.04,WeatherCatV1.13B119,2013-04-05 01:12:00,
2013-04-04 21:17:00,47.0,19.4,30.09,ESE,118,0.0,3.0,33,0.00,,,0.04,WeatherCatV1.13B119,2013-04-05 01:17:00,
2013-04-04 21:22:00,46.7,19.8,30.09,East,95,2.0,2.0,34,0.00,,,0.04,WeatherCatV1.13B119,2013-04-05 01:22:00,
2013-04-04 21:27:00,46.4,19.6,30.08,ESE,110,2.0,6.0,34,0.00,,,0.04,WeatherCatV1.13B119,2013-04-05 01:27:00,
2013-04-04 21:32:00,46.2,20.1,30.08,ENE,70,0.0,5.0,35,0.00,,,0.04,WeatherCatV1.13B119,2013-04-05 01:32:00,
2013-04-04 21:37:00,45.9,20.5,30.08,ENE,67,0.0,6.0,36,0.00,,,0.04,WeatherCatV1.13B119,2013-04-05 01:37:00,
2013-04-04 21:42:00,45.6,20.2,30.08,NE,49,0.0,2.0,36,0.00,,,0.04,WeatherCatV1.13B119,2013-04-05 01:42:00,
2013-04-04 21:47:00,45.3,20.6,30.08,East,86,2.0,2.0,37,0.00,,,0.04,WeatherCatV1.13B119,2013-04-05 01:47:00,
2013-04-04 21:52:00,45.1,21.0,30.08,East,85,3.0,5.0,38,0.00,,,0.04,WeatherCatV1.13B119,2013-04-05 01:52:00,
2013-04-04 21:57:00,45.0,20.9,30.08,East,84,1.0,3.0,38,0.00,,,0.04,WeatherCatV1.13B119,2013-04-05 01:57:00,
2013-04-04 22:02:00,44.7,20.7,30.07,North,6,0.0,2.0,38,0.00,,,0.04,WeatherCatV1.13B119,2013-04-05 02:02:00,
2013-04-04 22:07:00,44.5,21.1,30.07,East,91,0.0,0.0,39,0.00,,,0.04,WeatherCatV1.13B119,2013-04-05 02:07:00,
2013-04-04 22:12:00,44.3,20.9,30.07,NW,323,0.0,3.0,39,0.00,,,0.04,WeatherCatV1.13B119,2013-04-05 02:12:00,
2013-04-04 22:17:00,44.1,20.7,30.07,East,88,0.0,3.0,39,0.00,,,0.04,WeatherCatV1.13B119,2013-04-05 02:17:00,
2013-04-04 22:22:00,43.9,20.6,30.06,ENE,75,0.0,4.0,39,0.00,,,0.04,WeatherCatV1.13B119,2013-04-05 02:22:00,
2013-04-04 22:27:00,43.7,21.0,30.06,ESE,121,0.0,1.0,40,0.00,,,0.04,WeatherCatV1.13B119,2013-04-05 02:27:00,
2013-04-04 22:32:00,43.5,21.4,30.07,ESE,118,2.0,3.0,41,0.00,,,0.05,WeatherCatV1.13B119,2013-04-05 02:32:00,
2013-04-04 22:37:00,43.4,20.7,30.07,East,94,1.0,7.0,40,0.00,,,0.05,WeatherCatV1.13B119,2013-04-05 02:37:00,
2013-04-04 22:42:00,43.2,21.1,30.06,East,99,0.0,4.0,41,0.00,,,0.05,WeatherCatV1.13B119,2013-04-05 02:42:00,
2013-04-04 22:47:00,43.1,21.0,30.06,ESE,108,3.0,3.0,41,0.00,,,0.05,WeatherCatV1.13B119,2013-04-05 02:47:00,
2013-04-04 22:52:00,42.9,20.8,30.06,NE,50,0.0,4.0,41,0.00,,,0.05,WeatherCatV1.13B119,2013-04-05 02:52:00,
2013-04-04 22:57:00,42.8,21.3,30.05,ESE,103,0.0,2.0,42,0.00,,,0.05,WeatherCatV1.13B119,2013-04-05 02:57:00,
2013-04-04 23:02:00,42.7,21.2,30.05,ENE,58,0.0,1.0,42,0.00,,,0.05,WeatherCatV1.13B119,2013-04-05 03:02:00,
2013-04-04 23:07:00,42.6,21.1,30.05,East,96,1.0,2.0,42,0.00,,,0.05,WeatherCatV1.13B119,2013-04-05 03:07:00,
2013-04-04 23:12:00,42.5,21.6,30.05,SE,125,2.0,5.0,43,0.00,,,0.05,WeatherCatV1.13B119,2013-04-05 03:12:00,
2013-04-04 23:17:00,42.4,21.5,30.05,ENE,62,2.0,3.0,43,0.00,,,0.05,WeatherCatV1.13B119,2013-04-05 03:17:00,
2013-04-04 23:22:00,42.3,21.4,30.05,ESE,122,1.0,3.0,43,0.00,,,0.05,WeatherCatV1.13B119,2013-04-05 03:22:00,
2013-04-04 23:27:00,42.1,21.8,30.05,North,359,1.0,2.0,44,0.00,,,0.05,WeatherCatV1.13B119,2013-04-05 03:27:00,
2013-04-04 23:32:00,42.0,21.7,30.04,SSE,152,0.0,4.0,44,0.00,,,0.05,WeatherCatV1.13B119,2013-04-05 03:32:00,
2013-04-04 23:37:00,41.9,22.1,30.04,NNE,18,0.0,2.0,45,0.00,,,0.05,WeatherCatV1.13B119,2013-04-05 03:37:00,
2013-04-04 23:42:00,41.7,22.5,30.04,SSW,196,1.0,4.0,46,0.00,,,0.05,WeatherCatV1.13B119,2013-04-05 03:42:00,
2013-04-04 23:47:00,41.6,22.4,30.04,North,11,0.0,2.0,46,0.00,,,0.05,WeatherCatV1.13B119,2013-04-05 03:47:00,
2013-04-04 23:52:00,41.5,22.3,30.04,ENE,74,3.0,5.0,46,0.00,,,0.05,WeatherCatV1.13B119,2013-04-05 03:52:00,
2013-04-04 23:57:00,41.4,22.7,30.04,NE,35,2.0,4.0,47,0.00,,,0.05,WeatherCatV1.13B119,2013-04-05 03:57:00,